Tracking 17742 objects as of 25-June-2016
HD Live streaming from Space Station
objects crossing your sky now

EDUSAT

Track EDUSAT now!
10-day predictions
EDUSAT is classified as:


NORAD ID: 37788
Int'l Code: 2011-044A
Perigee: 638.8 km
Apogee: 694.2 km
Inclination: 98.2 °
Period: 97.9 minutes
Semi major axis: 7037 km
RCS: 0.1421 m2 (medium)
Launch date: August 17, 2011
Source: Italy (IT)
Launch site: Orenburg, Russia (OREN)

EduSat is a microsatellite built by the University of Rome.
Your satellite tracking list
Your tracking list is empty





NASA's NSSDC Master Catalog

Two Line Element Set (TLE):
1 37788U 11044A   16177.21400932  .00000180  00000-0  37986-4 0  9992
2 37788  98.2212 286.5814 0039335 137.2268 283.3925 14.70537490260421
Source of the keplerian elements: AFSPC

N2YO: 829